{"data":{"norad_id":63148,"intl_designator":"2025-043S","name":"STARLINK-32937","alt_names":[],"object_type":"PAYLOAD","status":"ACTIVE","operator":null,"country":"US","launch_date":"2025-03-03","launch_site_code":"AFETR","launch_vehicle":null,"mission":null,"orbit_class":"UNKNOWN","rcs_meters":null,"size_class":null,"mass_kg":null,"dimensions":null,"purposes":["comms"],"wikipedia_slug":null,"has_3d_model":false,"image_url":null,"decayed_at":null,"tle_current":{"epoch":"2026-09-21T17:19:42.652416Z","epoch_age_seconds":56659,"freshness":"FRESH","line1":"1 63148U 25043S   26264.72202144  .00010577  00000+0  39321-3 0  9998","line2":"2 63148  42.9994 349.0877 0000797 249.7064 110.3702 15.27589719 87344","mean_motion":15.27589719,"eccentricity":7.97e-5,"inclination_deg":42.9994,"raan_deg":349.0877,"arg_perigee_deg":249.7064,"mean_anomaly_deg":110.3702,"bstar":0.00039321,"rev_number":8734,"period_min":94.266148959333,"perigee_km":482.47315979914,"apogee_km":483.56682822398,"semimajor_km":6861.1569940116,"source":"CELESTRAK","updated_at":"2026-09-22T09:00:49.793187Z"}}}